Tracking 18840 objects as of 18-November-2017
HD Live streaming from Space Station
objects crossing your sky now

FENGYUN 1C DEB

Track FENGYUN 1C DEB now!
10-day predictions


NORAD ID: 30214
Int'l Code: 1999-025VX
Perigee: 828.5 km
Apogee: 868.1 km
Inclination: 98.9 °
Period: 101.7 minutes
Semi major axis: 7219 km
RCS: 0.0136 m2 (small)
Launch date: May 10, 1999
Source: People's Republic of China (PRC)
Launch site: Taiyaun Space Center, China (TSC)

Note: This is SATELLITE DEBRIS
aabbcc
Your satellite tracking list
Your tracking list is empty




NASA's NSSDC Master Catalog

Two Line Element Set (TLE):
1 30214U 99025VX  17321.81505997 +.00000929 +00000-0 +49823-3 0  9992
2 30214 098.9386 002.1530 0027396 215.6928 206.7550 14.15337728557627
Source of the keplerian elements: AFSPC